Agia Marina, Greece

3:40 PM EET on January 18, 2018 (GMT +0200)
Odysseas Elytis | | Change Station

Elev 16 ft 39.07 °N, 26.60 °E | Updated 20 minutes ago

Mostly Cloudy
Mostly Cloudy
48 °F
Feels Like 48 °F
N
25
Wind Variable Wind from NNW
Gusts 37 mph

Today
High -- | Low -- °F
--% Chance of Precip.
Yesterday
High -- | Low -- °F
Precip. -- in
Pressure 29.68 in
Visibility 6.2 miles
Clouds Few 2000 ft
Mostly Cloudy 2500 ft
Dew Point 39 °F
Humidity 71%
Rainfall 0.00 in
Snow Depth Not available.
7:30 AM 5:18 PM
New Moon, 2% visible
METAR LGMT 181320Z 33022G32KT 300V010 9999 FEW020TCU BKN025 09/04 Q1005
Pressure 29.68 in
Visibility 6.2 miles
Clouds Few 2000 ft
Mostly Cloudy 2500 ft
Dew Point 39 °F
Humidity 71%
Rainfall 0.00 in
Snow Depth Not available.
7:30 AM 5:18 PM
New Moon, 2% visible
METAR LGMT 181320Z 33022G32KT 300V010 9999 FEW020TCU BKN025 09/04 Q1005

Get Severe Weather Alerts

Thanks for signing up!

Be on the lookout for a verification email in your inbox.

You'll start receiving the daily forecast at 6 AM.

×

10-Day Weather Forecast

×

Almanac

Astronomy

Jan. 18, 2018 Rise Set
Actual Time
Civil Twilight
Nautical Twilight
Astronomical Twilight
Moon
Length of Visible Light
Length of Day
Tomorrow will be .
, % of the Moon is Illuminated

Today's Extremes

Country Highs Country Lows

Community

WunderPhotos

Category 6

Welcome to Category 6. This is the collective home for Weather Underground's featured writeups by Dr. Jeff Masters (right), Bob Henson (left), Chris Burt, and other regular contributors.

Nearby

Air Quality

  Air Quality AQ Index Pollutant
Not available.

Snow Depth

Station Depth Elevation

Earthquake Activity

City Distance Mag. Time & Date
Minimum magnitude displayed is 2.5.

Coastal Water Temperatures

Place Temperature

Stations

Nearby Weather Stations

Station Location Temp. Windchill Dew Point Humidity Wind Precip. Elev Updated Type